Content
SEND FEEDBACK

Daily
Averages
Monthly
Summary
Canada

LONDON, ONTARIO


Home > North America > Canada > Ontario
Elevation: 912 feet     Latitude: 43 02N     Longitude: 081 09W

WEATHER
 
SELECT A DAY
Number of Records: 191,420;   Date Range: 1/1/95 - 8/20/14
 
SHARE

PRINT THIS DATA

[ ← Previous Day ]
WEATHER ALMANAC - SEPTEMBER 1, 2013
[ Next Day → ]
[ °C ]   °F
Weather ElementAverageHighLow
Temperature68.7 °F75.2 °F (12:00 pm)62.6 °F (1:00 am)
Dewpoint65.4 °F68 °F (9:00 am)62.6 °F (1:00 am)
Humidity89.5 %100 % (1:00 am)68 % (2:00 pm)
Barometer29.82 in29.86 in (1:44 am)29.76 in (7:00 pm)
Wind Speed4.8 mph13.8 mph (4:00 pm)
Weather ElementAverage
Visibility6.3 mi
Wind DirectionESE (127.1 °)

Weather ElementTotal
Precipitation---
Cooling Degree Days3.9 (Base 65)
Growing Degree Days18.9 (Base 50)
Averaged from 39 records on September 1, 2013
WEATHER CONDITIONS BREAKOUT
WIND DIRECTION BREAKOUT
WEATHER BY HOUR - SEPTEMBER 1, 2013
[ °C ]   °F
Local TimeTemperatureDewpointHumidityBarometerVisibilityWind DirectionWind SpeedGust SpeedPrecipitationEventsConditions
1:00 AM62.6 °F62.6 °F100 %29.85 in3.0 miVariable2.3 mphScattered Clouds
1:44 AM62.6 °F62.6 °F100 %29.86 in2.0 miCalmOvercast
2:00 AM63.0 °F63.0 °F100 %29.85 in4.0 miNorth (350°)1.2 mphOvercast
2:00 AM62.6 °F62.6 °F100 %29.85 in4.0 miCalmOvercast
2:43 AM64.4 °F62.6 °F94 %29.84 in2.5 miNorth (360°)2.3 mphMostly Cloudy
3:00 AM64.4 °F62.6 °F94 %29.83 in2.5 miEast (90°)3.5 mphMostly Cloudy
3:15 AM62.6 °F62.6 °F100 %29.83 in1.2 miCalmMostly Cloudy
4:00 AM62.6 °F62.6 °F100 %29.82 in0.6 miWSW (250°)2.3 mphMostly Cloudy
4:09 AM62.6 °F62.6 °F100 %29.82 in0.4 miCalmFogFog
5:00 AM64.4 °F62.6 °F94 %29.82 in0.2 miCalmFogFog
6:00 AM64.4 °F64.4 °F100 %29.82 in0.2 miENE (70°)3.5 mphFogFog
7:00 AM64.4 °F64.4 °F100 %29.83 in0.4 miEast (80°)2.3 mphFogFog
7:18 AM64.4 °F64.4 °F100 %29.84 in0.5 miCalmFogFog
8:00 AM66.0 °F66.0 °F99 %29.85 in1.0 miCalm
8:00 AM66.2 °F66.2 °F100 %29.85 in0.8 miCalmOvercast
8:16 AM66.2 °F66.2 °F100 %29.85 in1.0 miSSE (160°)4.6 mphOvercast
8:22 AM66.2 °F66.2 °F100 %29.85 in1.0 miSSE (160°)4.6 mphMostly Cloudy
8:29 AM68.0 °F66.2 °F94 %29.85 in1.5 miSSE (150°)5.8 mphMostly Cloudy
9:00 AM68.0 °F68.0 °F100 %29.84 in2.0 miSE (140°)5.8 mphMostly Cloudy
9:28 AM68.0 °F66.2 °F94 %29.83 in2.5 miSE (140°)5.8 mphScattered Clouds
9:44 AM69.8 °F68.0 °F94 %29.83 in3.0 miSE (130°)6.9 mphMostly Cloudy
10:00 AM71.6 °F68.0 °F88 %29.83 in5.0 miSE (130°)8.1 mphMostly Cloudy
11:00 AM71.6 °F66.2 °F83 %29.83 in5.0 miSSE (150°)6.9 mphHaze
12:00 PM75.2 °F66.2 °F73 %29.82 in8.0 miSE (140°)10.4 mphHaze
1:00 PM75.2 °F66.2 °F73 %29.82 in12.0 miSSE (160°)8.1 mphMostly Cloudy
2:00 PM75.0 °F67.0 °F68 %29.83 in12.0 miSouth (170°)9.2 mphOvercast
2:00 PM75.2 °F66.2 °F73 %29.83 in12.0 miSouth (180°)6.9 mphOvercast
3:00 PM75.2 °F66.2 °F73 %29.80 in15.0 miSouth (180°)10.4 mphOvercast
3:38 PM75.2 °F66.2 °F73 %29.79 in15.0 miSouth (190°)11.5 mphOvercast
4:00 PM75.2 °F66.2 °F73 %29.79 in15.0 miSSW (210°)13.8 mphOvercast
5:00 PM75.2 °F66.2 °F73 %29.79 in15.0 miSouth (190°)8.1 mphOvercast
6:00 PM75.2 °F66.2 °F73 %29.78 in15.0 miSouth (170°)6.9 mphOvercast
7:00 PM73.4 °F66.2 °F78 %29.76 in15.0 miSSE (150°)6.9 mphMostly Cloudy
7:35 PM73.4 °F66.2 °F78 %29.77 in15.0 miSE (130°)3.5 mphOvercast
8:00 PM73.4 °F66.2 °F78 %29.78 in15.0 miCalmOvercast
9:00 PM69.8 °F66.2 °F88 %29.79 in12.0 miSE (130°)5.8 mphOvercast
10:00 PM69.8 °F68.0 °F94 %29.78 in10.0 miSE (130°)9.2 mphMostly Cloudy
11:00 PM68.0 °F66.2 °F94 %29.79 in10.0 miSouth (170°)4.6 mphScattered Clouds
11:35 PM69.8 °F68.0 °F94 %29.78 in5.0 miSouth (170°)4.6 mphMostly Cloudy
Hourly data recorded from CYXU, located miles away from London, Ontario







STORIES FROM OUR PARTNERS